Torna al catalogo

STARLINK-1566

AttivoComunicazioniVLEO
NORAD 46079·PAYLOAD·🇺🇸 United States

Lanciato Aug 7, 2020 da Cape Canaveral Space Force Station

Loading…

Prossimi Passaggi (prossime 24 ore)

TLE

AggiornatoSource: CelesTrak SupGP

Epoca: Sep 14, 2026, 14:05 UTC

1 46079C 20055BE  26257.58729167  .00049246  00000+0  15835-2 0  2570
2 46079  53.1588 302.0560 0001311  77.6243 264.2093 15.31679548    15

Traccia STARLINK-1566 in tempo reale con AllMySat

Download on the App Store